Home   Weather   Bryansk   Past weeks

Flag for Russia Past Weather in Bryansk, Russia — Yesterday and Last 2 Weeks

Now
68 °F

Partly sunny.


Feels Like: 68 °F
Forecast: 53 / 68 °F
Wind: 6 mph from West

Location: Brjansk

Current Time: Oct 1, 2016 at 3:15:41 PM

Latest Report: Oct 1, 2016 at 2:30 PM


Visibility: N/A

Pressure: 30.01 "Hg

Humidity: 64%

Dew Point: 55 °F

Location of BryanskLocation

Past Weather in Bryansk — Graph

°F

Bryansk Temperature Yesterday

Maximum temperature yesterday: 68 °F (at 4:00 PM)
Minimum temperature yesterday: 45 °F (at 5:00 AM)
Average temperature yesterday: 56 °F

High & Low Weather Summary for the Past Weeks

 TemperatureHumidityPressure
High68 °F (Sep 30, 4:00 PM)100% (Sep 17, 6:00 AM)30.24 "Hg (Sep 17, 6:00 AM)
Low36 °F (Sep 20, 6:00 AM)48% (Sep 18, 3:30 PM)29.74 "Hg (Sep 22, 8:00 AM)
Average50 °F80%29.98 "Hg
* Reported Sep 16 1:00 PM — Oct 1 1:30 PM, Bryansk, Weather by CustomWeather, © 2016

Note: Actual official high and low records may vary slightly from our data, if they occured in-between our weather recording intervals... More about our weather records

Advertising

Bryansk Weather History for the Previous 24 Hours

Scroll right to see more
 ConditionsComfort  
Time TempWeatherWind HumidityBarometerVisibility
1:30 PM
Sat, Oct 1
68 °FPassing clouds.8 mph60%30.01 "HgN/A
1:00 PM68 °FPassing clouds.10 mph60%30.01 "HgN/A
12:30 PM68 °FSunny.10 mph64%30.01 "Hg10 mi
12:00 PM66 °FSunny.6 mph68%30.01 "Hg10 mi
11:30 AM64 °FSunny.6 mph73%30.01 "Hg10 mi
11:00 AM64 °FSunny.6 mph73%30.01 "Hg10 mi
10:30 AM63 °FPassing clouds.3 mph73%30.01 "HgN/A
10:00 AM61 °FPassing clouds.3 mph83%30.01 "HgN/A
9:30 AM59 °FClear.3 mph88%30.01 "Hg6 mi
9:00 AM59 °FScattered clouds.1 mph88%29.98 "Hg6 mi
8:30 AM57 °FScattered clouds.No wind88%29.98 "Hg6 mi
8:00 AM54 °FScattered clouds.No wind100%29.98 "Hg6 mi
7:30 AM54 °FScattered clouds.No wind94%29.95 "Hg6 mi
7:00 AM54 °FPartly sunny.3 mph100%29.95 "Hg6 mi
6:00 AM54 °FPassing clouds.3 mph94%29.95 "Hg6 mi
5:00 AM54 °FPassing clouds.1 mph94%29.95 "Hg6 mi
6:00 PM
Fri, Sep 30
66 °FPassing clouds.8 mph73%29.86 "HgN/A
5:30 PM68 °FPassing clouds.10 mph69%29.86 "HgN/A
5:00 PM68 °FPassing clouds.13 mph69%29.86 "HgN/A
4:30 PM68 °FPassing clouds.15 mph69%29.86 "HgN/A
4:00 PM68 °FPassing clouds.15 mph64%29.86 "HgN/A
3:00 PM66 °FPassing clouds.13 mph68%29.86 "HgN/A
Weather by CustomWeather, © 2016

See weather overviewHow to use our weather pages